Home   Weather   Ingelheim am Rhein   Past weeks

Flag for Germany Past Weather in Ingelheim am Rhein, Rhineland-Palatinate, Germany — Yesterday and Last 2 Weeks

Now
28 °F

Clear.


Feels Like: 28 °F
Forecast: 17 / 31 °F
Wind: No wind

Location: Wiesbaden Airport

Current Time: Jan 19, 2017 at 8:25:21 pm

Latest Report: Jan 19, 2017 at 7:58 pm


Visibility: N/A

Pressure: 30.61 "Hg

Humidity: 58%

Dew Point: 15 °F

Location of Ingelheim am RheinLocation

Past Weather in Ingelheim am Rhein — Graph

°F

Ingelheim am Rhein Temperature Yesterday

Maximum temperature yesterday: 31 °F (at 3:58 pm)
Minimum temperature yesterday: 25 °F (at 7:58 am)
Average temperature yesterday: 28 °F

High & Low Weather Summary for the Past Weeks

 TemperatureHumidityPressure
High43 °F (Jan 13, 2:06 am)100% (Jan 4, 10:58 pm)30.80 "Hg (Jan 4, 10:58 pm)
Low14 °F (Jan 7, 3:58 am)42% (Jan 19, 1:58 pm)29.13 "Hg (Jan 13, 2:06 am)
Average32 °F85%30.13 "Hg
* Reported Jan 4 7:07 pm — Jan 19 6:58 pm, Ingelheim am Rhein, Weather by CustomWeather, © 2017

Note: Actual official high and low records may vary slightly from our data, if they occured in-between our weather recording intervals... More about our weather records

Advertising

Ingelheim am Rhein Weather History for the Previous 24 Hours

Scroll right to see more
 ConditionsComfort  
Time TempWeatherWind HumidityBarometerVisibility
6:58 pm
Thu, Jan 19
32 °FClear.No wind47%30.61 "HgN/A
5:58 pm31 °FClear.No wind51%30.60 "HgN/A
4:58 pm32 °FClear.6 mph51%30.60 "HgN/A
3:58 pm35 °FSunny.8 mph45%30.60 "HgN/A
2:58 pm35 °FSunny.8 mph44%30.60 "HgN/A
1:58 pm34 °FSunny.12 mph42%30.60 "HgN/A
12:58 pm33 °FSunny.13 mph45%30.63 "HgN/A
11:58 am32 °FSunny.9 mph47%30.65 "HgN/A
10:58 am28 °FSunny.No wind64%30.66 "HgN/A
9:58 am23 °FSunny.3 mph75%30.66 "HgN/A
8:58 am21 °FSunny.No wind74%30.66 "HgN/A
7:58 am19 °FClear.No wind76%30.65 "HgN/A
6:58 am24 °FClear.No wind62%30.64 "HgN/A
5:58 am24 °FClear.3 mph62%30.64 "HgN/A
4:58 am24 °FClear.6 mph64%30.65 "HgN/A
3:58 am25 °FClear.No wind63%30.65 "HgN/A
2:58 am25 °FClear.6 mph63%30.64 "HgN/A
1:58 am27 °FClear.9 mph64%30.65 "HgN/A
12:58 am26 °FClear.13 mph63%30.65 "HgN/A
11:58 pm
Wed, Jan 18
27 °FClear.12 mph64%30.65 "HgN/A
10:58 pm27 °FClear.10 mph69%30.65 "HgN/A
9:58 pm27 °FClear.13 mph69%30.65 "HgN/A
8:58 pm27 °FClear.9 mph74%30.66 "HgN/A
Weather by CustomWeather, © 2017

See weather overviewHow to use our weather pages